Tracking 34719 objects as of 12-Jul-2026
HD Live streaming from Space Station
objects crossing your sky now

SL-12 R/B(2)

Track SL-12 R/B(2) now!


NORAD ID: 26992
Int'l Code: 2001-053F
Perigee: 19,055.6 km
Apogee: 19,139.8 km
Inclination: 64.1 °
Period: 674.2 minutes
Semi major axis: 25468 km
RCS: 0.003 m2 (small)
Launch date: December 1, 2001
Source: Commonwealth of Independent States (former USSR) (CIS)
Launch site: TYURATAM MISSILE AND SPACE COMPLEX (TTMTR)

Note: This is a ROCKET BODY
Your satellite tracking list
Your tracking list is empty




NASA's NSSDC Master Catalog

Two Line Element Set (TLE):
1 26992U 01053F   26185.98040300 -.00000024  00000-0  00000-0 0  9990
2 26992  64.1295  55.1967 0016546 268.2181 306.7241  2.13595844191870
Source of the keplerian elements: AFSPC